Weather History for KCVX - May, 2012

Change the Weather History Date:

Wednesday, May 16, 2012

  Actual Average Record
Temperature  
Mean Temperature 45 °F -  
Max Temperature 54 °F 71 °F 66 °F (2001)
Min Temperature 36 °F 51 °F 34 °F (2014)
Degree Days  
Heating Degree Days 20    
Moisture  
Dew Point 36 °F    
Average Humidity 70    
Maximum Humidity 86    
Minimum Humidity 47    
Precipitation  
Precipitation 0.00 in - - ()
Sea Level Pressure  
Sea Level Pressure 30.08 in    
Wind  
Wind Speed 9 mph (WNW)    
Max Wind Speed 18 mph    
Max Gust Speed 21 mph    
Visibility 10 miles    
Events      
Averages and records for this station are not official NWS values.
T = Trace of Precipitation, MM = Missing Value Source: NWS Daily Summary

Daily Weather History Graph

Daily Weather History Graph

Search for Another Location

Airport or City:

Trip Planner

Search our weather history database for the weather conditions in past years. The results will help you decide how hot, cold, wet, or windy it might be!

Date:

Astronomy

May. 16, 2012 Rise Set
Actual Time 6:09 AM EDT 9:06 PM EDT
Civil Twilight 5:34 AM EDT 9:41 PM EDT
Nautical Twilight 4:50 AM EDT 10:25 PM EDT
Astronomical Twilight 3:58 AM EDT 11:18 PM EDT
Moon 3:49 AM EDT (5/16) 5:12 PM EDT (5/16)
Length of Visible Light 16h 06m
Length of Day
14h 56m
Waning Crescent, 16% of the Moon is Illuminated
May 16
Waning Crescent
May 20
New
May 28
First Quarter
Jun 4
Full
Jun 11
Last Quarter

Hourly Weather History & Observations

Time (EDT) Temp. Windchill Dew Point Humidity Pressure Visibility Wind Dir Wind Speed Gust Speed Precip Events Conditions
12:15 AM 41.4 °F 36.8 °F 37.4 °F 86% 29.99 in 10.0 mi West 6.9 mph - N/A   Clear
12:34 AM 42.1 °F 36.1 °F 37.2 °F 83% 29.99 in 10.0 mi West 10.4 mph - N/A   Clear
12:55 AM 41.9 °F 35.4 °F 37.4 °F 84% 29.99 in 10.0 mi West 11.5 mph - N/A   Clear
1:14 AM 42.1 °F 35.2 °F 37.4 °F 83% 29.98 in 10.0 mi West 12.7 mph - N/A   Clear
1:34 AM 41.9 °F 35.0 °F 37.4 °F 84% 29.99 in 10.0 mi West 12.7 mph - N/A   Clear
1:55 AM 41.9 °F 34.0 °F 37.4 °F 84% 30.00 in 10.0 mi West 16.1 mph - N/A   Clear
2:14 AM 41.9 °F 34.3 °F 37.4 °F 84% 30.00 in 10.0 mi WNW 15.0 mph - N/A   Clear
2:35 AM 41.9 °F 35.4 °F 37.4 °F 84% 30.00 in 10.0 mi WNW 11.5 mph 17.3 mph N/A   Clear
2:54 AM 41.9 °F 36.3 °F 37.4 °F 84% 30.00 in 10.0 mi WNW 9.2 mph - N/A   Clear
3:14 AM 41.4 °F 35.2 °F 37.0 °F 85% 30.00 in 10.0 mi WNW 10.4 mph 17.3 mph N/A   Clear
3:34 AM 41.2 °F 35.0 °F 36.9 °F 85% 30.00 in 10.0 mi WNW 10.4 mph 17.3 mph N/A   Clear
3:54 AM 41.2 °F 35.0 °F 36.7 °F 84% 30.01 in 10.0 mi WNW 10.4 mph 16.1 mph N/A   Clear
4:15 AM 41.2 °F 34.1 °F 36.9 °F 85% 30.01 in 10.0 mi WNW 12.7 mph 19.6 mph N/A   Clear
4:34 AM 41.2 °F 35.5 °F 36.9 °F 85% 30.01 in 10.0 mi WNW 9.2 mph - N/A   Clear
4:54 AM 41.0 °F 35.2 °F 36.9 °F 85% 30.01 in 10.0 mi WNW 9.2 mph - N/A   Clear
5:14 AM 41.2 °F 36.0 °F 36.3 °F 83% 30.01 in 10.0 mi NW 8.1 mph - N/A   Clear
5:34 AM 41.0 °F 36.4 °F 36.5 °F 84% 30.01 in 10.0 mi NW 6.9 mph - N/A   Clear
5:54 AM 41.0 °F 35.8 °F 36.5 °F 84% 30.02 in 10.0 mi NW 8.1 mph - N/A   Clear
6:14 AM 40.6 °F 36.0 °F 36.7 °F 86% 30.02 in 10.0 mi NW 6.9 mph - N/A   Clear
6:35 AM 40.8 °F 36.9 °F 37.0 °F 86% 30.03 in 10.0 mi NW 5.8 mph - N/A   Clear
6:54 AM 41.2 °F 37.3 °F 37.4 °F 86% 30.04 in 10.0 mi NW 5.8 mph - N/A   Clear
7:14 AM 41.9 °F 39.0 °F 37.4 °F 84% 30.05 in 10.0 mi NW 4.6 mph - N/A   Clear
7:34 AM 42.8 °F 38.6 °F 37.6 °F 82% 30.05 in 10.0 mi NW 6.9 mph - N/A   Clear
7:54 AM 43.3 °F 39.9 °F 37.8 °F 81% 30.06 in 10.0 mi NW 5.8 mph - N/A   Clear
8:15 AM 44.1 °F 40.8 °F 38.5 °F 81% 30.07 in 10.0 mi NNW 5.8 mph - N/A   Clear
8:34 AM 44.4 °F 40.5 °F 38.5 °F 80% 30.07 in 10.0 mi NW 6.9 mph - N/A   Clear
8:54 AM 45.0 °F 41.2 °F 38.7 °F 79% 30.07 in 10.0 mi NW 6.9 mph - N/A   Clear
9:15 AM 45.5 °F 41.8 °F 38.7 °F 77% 30.08 in 10.0 mi NNW 6.9 mph - N/A   Clear
9:34 AM 46.4 °F 43.5 °F 38.3 °F 73% 30.08 in 10.0 mi WNW 5.8 mph - N/A   Clear
9:54 AM 47.3 °F - 37.9 °F 70% 30.09 in 10.0 mi West 9.2 mph - N/A   Clear
10:14 AM 47.5 °F - 38.7 °F 71% 30.10 in 10.0 mi WNW 6.9 mph - N/A   Clear
10:34 AM 48.7 °F - 39.0 °F 69% 30.10 in 10.0 mi WNW 6.9 mph - N/A   Clear
10:55 AM 49.3 °F - 40.6 °F 72% 30.10 in 10.0 mi WNW 8.1 mph - N/A   Clear
11:14 AM 49.3 °F - 41.0 °F 73% 30.10 in 10.0 mi West 9.2 mph - N/A   Clear
11:34 AM 49.5 °F - 40.5 °F 71% 30.12 in 10.0 mi West 10.4 mph - N/A   Clear
11:55 AM 50.0 °F - 40.3 °F 69% 30.12 in 10.0 mi West 11.5 mph - N/A   Clear
12:14 PM 50.2 °F - 39.9 °F 68% 30.12 in 10.0 mi West 12.7 mph - N/A   Clear
12:34 PM 50.9 °F - 37.9 °F 61% 30.12 in 10.0 mi West 15.0 mph - N/A   Clear
12:55 PM 52.0 °F - 38.8 °F 61% 30.12 in 10.0 mi West 12.7 mph - N/A   Clear
1:14 PM 52.5 °F - 38.3 °F 58% 30.12 in 10.0 mi West 12.7 mph - N/A   Clear
1:34 PM 52.7 °F - 37.4 °F 56% 30.12 in 10.0 mi WSW 15.0 mph - N/A   Scattered Clouds
1:54 PM 52.7 °F - 36.7 °F 55% 30.12 in 10.0 mi West 16.1 mph - N/A   Scattered Clouds
2:14 PM 53.2 °F - 36.3 °F 53% 30.12 in 10.0 mi West 16.1 mph - N/A   Clear
2:34 PM 53.6 °F - 36.3 °F 52% 30.12 in 10.0 mi West 15.0 mph - N/A   Clear
2:54 PM 53.8 °F - 36.3 °F 52% 30.12 in 10.0 mi West 17.3 mph - N/A   Clear
3:14 PM 53.6 °F - 37.0 °F 53% 30.12 in 10.0 mi West 15.0 mph - N/A   Clear
3:35 PM 53.8 °F - 35.6 °F 50% 30.13 in 10.0 mi West 17.3 mph - N/A   Clear
3:54 PM 54.3 °F - 35.6 °F 49% 30.12 in 10.0 mi West 15.0 mph 20.7 mph N/A   Clear
4:14 PM 54.5 °F - 35.4 °F 49% 30.12 in 10.0 mi West 18.4 mph - N/A   Clear
4:34 PM 54.1 °F - 34.5 °F 48% 30.12 in 10.0 mi West 13.8 mph - N/A   Clear
4:54 PM 53.6 °F - 34.7 °F 49% 30.12 in 10.0 mi West 13.8 mph - N/A   Clear
5:15 PM 53.2 °F - 34.2 °F 48% 30.12 in 10.0 mi West 11.5 mph - N/A   Clear
5:34 PM 52.7 °F - 35.2 °F 52% 30.12 in 10.0 mi WNW 10.4 mph - N/A   Clear
5:54 PM 52.0 °F - 32.2 °F 47% 30.13 in 10.0 mi NW 9.2 mph - N/A   Clear
6:34 PM 51.1 °F - 33.3 °F 51% 30.13 in 10.0 mi NNW 6.9 mph - N/A   Clear
6:54 PM 50.0 °F - 32.5 °F 51% 30.13 in 10.0 mi North 4.6 mph - N/A   Clear
7:34 PM 50.0 °F - 32.2 °F 50% 30.13 in 10.0 mi North 4.6 mph - N/A   Clear
7:54 PM 49.5 °F - 32.9 °F 53% 30.14 in 10.0 mi North 3.5 mph - N/A   Clear
8:14 PM 49.1 °F - 32.9 °F 54% 30.14 in 10.0 mi NW 3.5 mph - N/A   Clear
8:34 PM 48.2 °F - 32.9 °F 55% 30.14 in 10.0 mi Calm Calm - N/A   Clear
8:54 PM 48.0 °F - 31.8 °F 54% 30.14 in 10.0 mi Calm Calm - N/A   Clear
9:14 PM 47.1 °F - 31.8 °F 55% 30.15 in 10.0 mi Calm Calm - N/A   Clear
9:34 PM 45.0 °F - 32.0 °F 60% 30.15 in 10.0 mi Calm Calm - N/A   Clear
10:14 PM 41.2 °F - 33.3 °F 73% 30.16 in 10.0 mi Calm Calm - N/A   Clear
10:55 PM 38.1 °F 35.7 °F 32.9 °F 81% 30.16 in 10.0 mi WSW 3.5 mph - N/A   Clear
11:14 PM 37.2 °F - 32.7 °F 84% 30.16 in 10.0 mi Calm Calm - N/A   Clear
11:34 PM 36.9 °F - 32.9 °F 86% 30.16 in 10.0 mi Calm Calm - N/A   Clear
11:54 PM 37.6 °F - 32.9 °F 83% 30.16 in 10.0 mi Calm Calm - N/A   Clear